Location: Recife
(8.0585°S, 34.8848°W)
Time: 19:57:12
(UTC-03:00)

A-11 Canister half - Pass Details

Date: 15 April 2026
Orbit: 1523 x 1684 km, 47.3° (Epoch: 16 May)

Event Time Altitude Azimuth Distance (km) Brightness Sun altitude
Rises 10:22:16 0° 310° (NW) 4,795 11.6 67.1°
Reaches altitude 10° 10:25:28 10° 306° (NW) 3,790 11.2 67.6°
Maximum altitude 10:34:49 58° 229° (SW) 1,772 10.0 68.9°
Drops below altitude 10° 10:43:58 10° 151° (SSE) 3,704 11.0 70.0°
Sets 10:47:05 0° 147° (SSE) 4,680 11.4 70.3°
